Date,TemperatureHighF,TemperatureAvgF,TemperatureLowF,DewpointHighF,DewpointAvgF,DewpointLowF,HumidityHigh,HumidityAvg,HumidityLow,PressureMaxIn,PressureMinIn,WindSpeedMaxMPH,WindSpeedAvgMPH,GustSpeedMaxMPH,PrecipitationSumIn
2014-4-10,78,72,67,57,54,52,64,54,42,30.15,30.10,5,1,0,0.00
2014-4-11,84,72,63,68,59,-100,91,67,48,30.13,30.02,7,2,0,0.00
2014-4-12,86,76,66,66,63,59,91,65,42,30.08,29.98,7,2,11,0.00
2014-4-13,84,75,71,72,69,65,94,83,59,30.00,29.90,5,1,8,0.92
2014-4-14,92,79,70,74,71,68,95,77,46,29.91,29.81,5,1,11,0.00
2014-4-15,90,80,72,74,71,70,94,77,53,29.84,29.77,6,2,13,0.00
2014-4-16,79,76,72,71,69,68,91,79,71,29.99,29.91,4,2,11,0.00
2014-4-17,80,75,73,74,71,70,92,87,77,30.06,29.94,5,1,13,0.28
2014-4-18,88,79,71,72,71,68,95,78,56,30.00,29.86,6,2,11,0.14
2014-4-19,92,79,69,73,68,60,92,71,46,29.90,29.79,10,3,16,0.27
2014-4-20,83,72,65,62,60,57,82,66,44,29.96,29.86,3,1,8,0.00
2014-4-21,68,67,66,61,61,60,83,80,78,29.95,29.94,0,0,0,0.00
2014-4-22,91,82,74,68,65,61,78,59,37,29.86,29.75,3,1,8,0.00
2014-4-23,92,77,64,68,63,59,89,65,34,29.88,29.77,4,1,7,0.00
2014-4-24,93,78,65,68,64,51,92,67,24,29.93,29.83,4,1,8,0.00
2014-4-25,97,81,69,71,66,56,91,65,27,29.93,29.82,4,0,7,0.00
2014-4-26,93,80,68,70,67,63,90,66,44,29.92,29.84,5,1,10,0.00
2014-4-27,93,82,72,71,65,56,89,61,33,29.93,29.85,5,1,9,0.00
2014-4-28,93,83,77,73,70,65,85,67,45,29.90,29.79,6,2,10,0.00
2014-4-29,89,80,77,74,73,70,87,80,61,29.93,29.78,4,1,7,0.00
2014-4-30,92,83,77,74,72,68,87,71,47,29.97,29.86,6,1,7,0.00
2014-5-1,93,82,76,75,71,68,87,71,47,29.95,29.85,6,2,12,0.00
2014-5-2,93,85,75,72,69,66,85,61,48,29.90,29.77,6,2,11,0.00
2014-5-3,90,79,72,75,71,68,94,78,54,29.91,29.83,9,1,16,0.59
2014-5-4,91,77,68,72,62,52,94,64,27,29.97,29.87,5,2,12,0.00
2014-5-5,89,76,65,66,62,55,90,65,33,29.97,29.90,5,1,10,0.00
2014-5-6,90,78,65,68,64,62,94,67,41,29.95,29.88,5,1,9,0.00
2014-5-7,89,80,74,70,66,-100,77,64,44,30.04,29.91,10,-6,16,0.00
2014-5-8,90,82,76,70,68,66,73,63,46,30.09,30.00,7,4,13,0.00
2014-5-9,90,82,77,69,67,64,73,61,43,30.09,29.99,8,5,13,0.00
2014-5-10,88,82,81,71,65,-100,71,60,56,30.05,29.96,8,-29,14,0.00
2014-5-11,78,78,78,67,67,67,67,67,67,30.01,30.01,4,4,5,0.00
2014-5-12,89,81,76,72,69,66,79,66,49,30.02,29.95,7,3,12,0.00
2014-5-13,89,81,75,76,72,70,92,76,56,29.96,29.88,8,3,14,0.26
2014-5-14,89,83,75,74,71,68,88,69,55,29.96,29.87,8,4,15,0.11
2014-5-15,85,76,73,76,73,70,95,90,72,29.93,29.84,5,0,8,0.86
2014-5-16,80,74,68,74,66,44,96,77,37,29.99,29.86,4,1,11,0.00
2014-5-17,85,74,64,62,58,55,78,59,41,30.01,29.95,9,4,18,0.00
2014-5-18,83,76,66,66,62,58,84,62,49,30.02,29.96,8,3,16,0.00
2014-5-19,85,78,73,66,64,61,70,62,47,30.05,29.98,8,3,14,0.00
2014-5-20,86,78,72,67,64,62,78,63,48,30.08,30.01,7,3,12,0.00
2014-5-21,83,76,70,65,63,59,75,65,46,30.07,30.01,5,1,10,0.00
2014-5-22,91,79,67,68,63,50,92,63,28,30.05,29.96,4,1,8,0.00
2014-5-23,98,82,69,70,66,60,94,65,29,30.02,29.91,5,1,8,0.00
2014-5-24,98,83,72,71,68,62,87,63,33,30.00,29.92,5,1,9,0.00
2014-5-25,95,82,72,74,71,68,93,72,44,30.03,29.93,5,1,10,0.00
2014-5-26,92,82,73,73,70,66,91,69,43,30.07,29.99,5,1,10,0.00
2014-5-27,92,82,74,72,70,65,89,68,45,30.05,29.94,5,1,8,0.00
2014-5-28,93,82,75,73,71,68,88,70,45,29.98,29.90,7,2,12,0.00
2014-5-29,88,78,72,74,71,-100,91,82,63,29.97,29.87,5,0,9,0.34
2014-5-30,94,80,72,77,69,-100,95,74,48,29.94,29.87,5,-8,9,0.54
2014-5-31,92,82,75,74,72,69,92,72,50,29.94,29.86,5,1,7,0.00
2014-6-1,89,82,76,75,72,71,89,75,57,29.95,29.87,6,2,13,0.00
2014-6-2,80,77,74,75,72,69,96,85,73,30.00,29.90,6,2,10,1.60
2014-6-3,86,79,74,70,67,62,76,67,54,29.96,29.89,5,1,8,0.00
2014-6-4,84,77,71,74,69,64,90,77,62,29.90,29.83,5,1,8,0.06
2014-6-5,92,81,71,70,67,62,90,66,44,29.89,29.80,4,1,12,0.00
2014-6-6,98,82,70,74,69,65,93,68,36,29.90,29.82,6,1,10,0.00
2014-6-7,100,83,74,76,73,67,93,76,35,29.92,29.84,10,0,17,0.84
2014-6-8,96,78,72,75,72,68,93,83,49,29.93,29.84,8,0,14,0.34
2014-6-9,89,75,72,75,72,70,96,91,60,29.91,29.82,1,0,6,0.01
2014-6-10,83,80,75,72,71,69,86,75,66,29.95,29.89,6,1,6,0.09
2014-6-11,76,75,72,74,72,70,95,92,88,29.92,29.86,1,0,1,2.78
2014-6-12,97,78,69,76,70,66,95,79,38,29.97,29.86,9,1,12,1.16
2014-6-13,97,77,70,77,72,67,97,87,41,29.97,29.89,6,0,10,1.49
2014-6-14,94,80,71,80,73,70,98,82,51,30.01,29.91,3,0,7,0.01
2014-6-15,95,84,76,77,74,70,91,73,48,30.04,29.93,5,1,9,0.00
2014-6-16,92,81,76,76,70,-100,94,73,51,30.06,29.97,6,-12,10,0.00
2014-6-17,86,78,72,74,71,69,95,81,63,30.06,29.96,5,1,11,0.21
2014-6-18,86,79,74,75,72,70,93,81,65,30.02,29.96,4,0,7,0.04
2014-6-19,94,78,71,74,71,69,97,82,47,30.05,29.95,7,0,13,1.71
2014-6-20,95,76,70,77,72,70,98,88,46,30.00,29.94,4,0,7,0.11
2014-6-21,98,78,72,76,73,71,97,86,43,29.95,29.86,5,0,8,0.76
2014-6-22,97,81,73,76,73,69,96,78,45,29.94,29.83,7,0,7,0.01
2014-6-23,100,84,73,77,73,68,96,72,37,30.02,29.87,5,1,8,0.00
2014-6-24,100,89,79,77,74,70,89,63,39,30.06,29.99,4,1,7,0.02
2014-6-25,97,84,75,78,75,69,95,77,42,30.05,29.95,4,0,8,0.02
2014-6-26,96,82,74,79,74,72,96,79,49,30.02,29.92,6,1,8,0.06